| time (UTC) | temp F | wind direction | speed MPH | gust MPH | rain 1hr in | rain 24hr in | rain mn in | humidity % | barometer mb |
| 20260506062514 | 45 | 226 | 0.0 | 0.0 | 0.00 | 0.00 | 0.00 | 94 | 1012.0 |
| 20260506062010 | 45 | 226 | 0.0 | 0.0 | 0.00 | 0.00 | 0.00 | 94 | 1012.2 |
| 20260506061506 | 45 | 226 | 0.0 | 0.0 | 0.00 | 0.00 | 0.00 | 93 | 1012.0 |
| 20260506061004 | 45 | 226 | 0.0 | 0.0 | 0.00 | 0.00 | 0.00 | 93 | 1012.0 |
| 20260506060503 | 45 | 226 | 0.0 | 0.0 | 0.00 | 0.00 | 0.00 | 92 | 1012.0 |
| 20260506050931 | 48 | 226 | 0.0 | 0.0 | 0.00 | 0.00 | 0.00 | 92 | 1011.8 |
| 20260506050429 | 48 | 226 | 0.0 | 0.0 | 0.00 | 0.00 | 0.00 | 91 | 1011.6 |
| 20260506044919 | 47 | 226 | 0.0 | 0.0 | 0.00 | 0.05 | 0.05 | 92 | 1011.9 |
| 20260506044418 | 47 | 226 | 0.0 | 0.0 | 0.00 | 0.05 | 0.05 | 92 | 1011.6 |
| 20260506043914 | 47 | 226 | 0.0 | 0.0 | 0.00 | 0.05 | 0.05 | 92 | 1011.5 |
| 20260506043411 | 47 | 226 | 0.0 | 0.0 | 0.00 | 0.05 | 0.05 | 92 | 1011.5 |
| 20260506042909 | 47 | 226 | 0.0 | 0.0 | 0.00 | 0.05 | 0.05 | 90 | 1011.5 |
| 20260506042408 | 47 | 226 | 0.0 | 0.0 | 0.00 | 0.05 | 0.05 | 90 | 1011.9 |
| 20260506041906 | 47 | 226 | 0.0 | 0.0 | 0.00 | 0.05 | 0.05 | 91 | 1011.8 |
| 20260506041403 | 47 | 226 | 0.0 | 0.0 | 0.00 | 0.05 | 0.05 | 90 | 1011.8 |
| 20260506040900 | 47 | 226 | 0.0 | 0.0 | 0.00 | 0.05 | 0.05 | 90 | 1012.1 |
| 20260506040358 | 47 | 226 | 0.0 | 0.0 | 0.00 | 0.05 | 0.05 | 89 | 1011.8 |
| 20260506035854 | 48 | 226 | 0.0 | 0.0 | 0.00 | 0.05 | 0.05 | 87 | 1011.7 |
| 20260506035351 | 48 | 226 | 0.0 | 0.0 | 0.00 | 0.05 | 0.05 | 87 | 1011.9 |
| 20260506034848 | 48 | 226 | 0.0 | 0.0 | 0.00 | 0.05 | 0.05 | 86 | 1011.8 |
| 20260506034345 | 48 | 226 | 0.0 | 0.0 | 0.00 | 0.05 | 0.05 | 85 | 1011.9 |
| 20260506033842 | 49 | 226 | 0.0 | 0.0 | 0.00 | 0.05 | 0.05 | 85 | 1012.0 |
| 20260506033339 | 49 | 226 | 0.0 | 0.0 | 0.00 | 0.05 | 0.05 | 84 | 1011.9 |
| 20260506032836 | 49 | 226 | 0.0 | 0.0 | 0.00 | 0.05 | 0.05 | 84 | 1011.8 |
| 20260506032333 | 49 | 226 | 0.0 | 0.0 | 0.00 | 0.05 | 0.05 | 85 | 1012.1 |
| 20260506031830 | 49 | 226 | 0.0 | 0.0 | 0.00 | 0.05 | 0.05 | 84 | 1012.2 |
| 20260506031327 | 50 | 226 | 0.0 | 0.0 | 0.00 | 0.05 | 0.05 | 84 | 1012.0 |
| 20260506030825 | 50 | 226 | 0.0 | 0.0 | 0.00 | 0.05 | 0.05 | 83 | 1012.0 |
| 20260506030323 | 49 | 226 | 0.0 | 0.0 | 0.00 | 0.05 | 0.05 | 82 | 1012.0 |
| 20260506025819 | 50 | 226 | 0.0 | 0.0 | 0.00 | 0.05 | 0.05 | 82 | 1011.8 |
| 20260506025315 | 50 | 226 | 0.0 | 0.0 | 0.00 | 0.05 | 0.05 | 81 | 1012.0 |
| 20260506024813 | 50 | 226 | 0.0 | 0.0 | 0.00 | 0.05 | 0.05 | 84 | 1011.8 |
| 20260506024309 | 50 | 226 | 0.0 | 0.0 | 0.00 | 0.05 | 0.05 | 82 | 1011.7 |
| 20260506023806 | 50 | 226 | 0.0 | 0.0 | 0.00 | 0.05 | 0.05 | 82 | 1011.6 |
| 20260506023303 | 50 | 226 | 0.0 | 0.0 | 0.00 | 0.05 | 0.05 | 84 | 1011.5 |
| 20260506022759 | 50 | 226 | 0.0 | 0.0 | 0.00 | 0.05 | 0.05 | 81 | 1011.8 |
| 20260506022257 | 50 | 226 | 0.0 | 0.0 | 0.00 | 0.05 | 0.05 | 80 | 1011.4 |
| 20260506021755 | 50 | 226 | 0.0 | 0.0 | 0.00 | 0.05 | 0.05 | 78 | 1011.6 |
| 20260506021252 | 50 | 226 | 0.0 | 0.0 | 0.00 | 0.05 | 0.05 | 78 | 1011.4 |
| 20260506020748 | 50 | 226 | 0.0 | 0.0 | 0.00 | 0.05 | 0.05 | 79 | 1011.5 |
| 20260506020247 | 50 | 226 | 0.0 | 0.0 | 0.00 | 0.05 | 0.05 | 80 | 1011.5 |
| 20260506015744 | 51 | 226 | 0.0 | 0.0 | 0.00 | 0.05 | 0.05 | 79 | 1011.6 |
| 20260506015241 | 50 | 226 | 0.0 | 0.0 | 0.00 | 0.05 | 0.05 | 78 | 1011.2 |
| 20260506014738 | 50 | 225 | 0.0 | 0.0 | 0.00 | 0.05 | 0.05 | 79 | 1010.9 |
| 20260506014234 | 50 | 225 | 0.0 | 0.0 | 0.00 | 0.05 | 0.05 | 82 | 1010.9 |
| 20260506013732 | 51 | 225 | 0.0 | 0.0 | 0.00 | 0.05 | 0.05 | 83 | 1010.8 |
| 20260506013229 | 51 | 225 | 0.0 | 0.0 | 0.00 | 0.05 | 0.05 | 81 | 1010.6 |
| 20260506012725 | 51 | 225 | 0.0 | 0.0 | 0.00 | 0.05 | 0.05 | 80 | 1010.9 |
| 20260506012222 | 51 | 225 | 0.0 | 0.0 | 0.00 | 0.05 | 0.05 | 79 | 1010.6 |
| 20260506011720 | 51 | 226 | 0.0 | 0.0 | 0.00 | 0.05 | 0.05 | 75 | 1010.7 |
| 20260506011215 | 51 | 225 | 0.0 | 0.0 | 0.00 | 0.05 | 0.05 | 75 | 1010.5 |
| 20260506010714 | 51 | 225 | 0.0 | 0.0 | 0.00 | 0.05 | 0.05 | 75 | 1010.8 |
| 20260506010211 | 51 | 226 | 0.0 | 0.0 | 0.00 | 0.05 | 0.05 | 75 | 1010.4 |
| 20260506005708 | 52 | 226 | 0.0 | 0.0 | 0.00 | 0.05 | 0.05 | 73 | 1010.8 |
| 20260506005205 | 52 | 226 | 0.0 | 0.0 | 0.00 | 0.05 | 0.05 | 74 | 1010.6 |
| 20260506004701 | 52 | 226 | 0.0 | 0.0 | 0.00 | 0.05 | 0.05 | 70 | 1010.8 |
| 20260506004159 | 52 | 226 | 0.0 | 0.0 | 0.00 | 0.05 | 0.05 | 67 | 1010.6 |
| 20260506003654 | 52 | 226 | 0.0 | 0.0 | 0.00 | 0.05 | 0.05 | 63 | 1010.6 |
| 20260506003151 | 52 | 226 | 0.0 | 0.0 | 0.00 | 0.05 | 0.05 | 63 | 1010.4 |
| 20260506002647 | 53 | 226 | 0.0 | 0.0 | 0.00 | 0.05 | 0.05 | 63 | 1010.4 |
| 20260506002143 | 53 | 226 | 0.0 | 0.0 | 0.00 | 0.05 | 0.05 | 62 | 1010.3 |
| 20260506001639 | 53 | 225 | 0.0 | 0.0 | 0.00 | 0.05 | 0.05 | 63 | 1010.4 |
| 20260506001137 | 53 | 225 | 0.0 | 0.0 | 0.00 | 0.05 | 0.05 | 63 | 1010.5 |
| 20260506000634 | 53 | 225 | 0.0 | 0.0 | 0.00 | 0.05 | 0.05 | 61 | 1010.4 |
| 20260506000131 | 53 | 246 | 0.0 | 0.0 | 0.00 | 0.05 | 0.05 | 60 | 1010.4 |
| 20260505235629 | 53 | 219 | 0.0 | 0.0 | 0.00 | 0.05 | 0.05 | 62 | 1010.5 |
| 20260505235126 | 53 | 219 | 0.0 | 0.0 | 0.00 | 0.05 | 0.05 | 61 | 1010.4 |
| 20260505234623 | 54 | 214 | 0.0 | 0.0 | 0.00 | 0.05 | 0.05 | 62 | 1010.2 |
| 20260505234119 | 54 | 227 | 0.0 | 0.0 | 0.00 | 0.05 | 0.05 | 61 | 1010.2 |
| 20260505233617 | 54 | 225 | 0.0 | 0.0 | 0.00 | 0.05 | 0.05 | 61 | 1010.4 |
| 20260505233114 | 54 | 242 | 1.0 | 2.0 | 0.00 | 0.05 | 0.05 | 60 | 1010.3 |
| 20260505232612 | 54 | 224 | 0.0 | 0.0 | 0.00 | 0.05 | 0.05 | 60 | 1010.3 |
| 20260505232109 | 54 | 229 | 0.0 | 1.0 | 0.00 | 0.05 | 0.05 | 60 | 1010.3 |
| 20260505231606 | 54 | 230 | 0.0 | 0.0 | 0.00 | 0.05 | 0.05 | 62 | 1010.5 |
| 20260505231105 | 54 | 228 | 0.0 | 0.0 | 0.00 | 0.05 | 0.05 | 59 | 1010.4 |
| 20260505230602 | 54 | 223 | 0.0 | 0.0 | 0.00 | 0.05 | 0.05 | 61 | 1010.4 |
| 20260505230058 | 55 | 222 | 0.0 | 0.0 | 0.00 | 0.05 | 0.05 | 61 | 1010.3 |
| 20260505225555 | 54 | 224 | 0.0 | 0.0 | 0.00 | 0.05 | 0.05 | 61 | 1010.6 |
| 20260505225051 | 54 | 234 | 0.0 | 0.0 | 0.00 | 0.05 | 0.05 | 56 | 1010.3 |
| 20260505224548 | 54 | 222 | 1.0 | 2.0 | 0.00 | 0.05 | 0.05 | 57 | 1010.4 |
| 20260505224045 | 54 | 234 | 1.0 | 1.0 | 0.00 | 0.05 | 0.05 | 59 | 1010.8 |
| 20260505223542 | 54 | 224 | 1.0 | 1.0 | 0.00 | 0.05 | 0.05 | 62 | 1010.5 |
| 20260505223038 | 55 | 219 | 0.0 | 0.0 | 0.00 | 0.05 | 0.05 | 62 | 1010.3 |
| 20260505222535 | 55 | 243 | 0.0 | 0.0 | 0.00 | 0.05 | 0.05 | 59 | 1010.6 |
| 20260505222031 | 54 | 220 | 0.0 | 0.0 | 0.00 | 0.05 | 0.05 | 61 | 1010.7 |
| 20260505221528 | 54 | 224 | 2.0 | 2.0 | 0.00 | 0.05 | 0.05 | 57 | 1010.6 |
| 20260505221025 | 54 | 226 | 2.0 | 2.0 | 0.00 | 0.05 | 0.05 | 55 | 1010.6 |
| 20260505220522 | 54 | 214 | 0.0 | 0.0 | 0.00 | 0.05 | 0.05 | 59 | 1010.8 |
| 20260505220020 | 54 | 292 | 2.0 | 2.0 | 0.00 | 0.05 | 0.05 | 57 | 1010.4 |
| 20260505215518 | 54 | 33 | 2.0 | 5.0 | 0.00 | 0.05 | 0.05 | 56 | 1010.5 |
| 20260505215015 | 54 | 223 | 0.0 | 1.0 | 0.00 | 0.05 | 0.05 | 57 | 1010.7 |
| 20260505214513 | 54 | 247 | 2.0 | 2.0 | 0.00 | 0.05 | 0.05 | 56 | 1010.5 |
| 20260505214010 | 55 | 263 | 3.0 | 5.0 | 0.00 | 0.05 | 0.05 | 55 | 1010.6 |
| 20260505213508 | 55 | 259 | 2.0 | 2.0 | 0.00 | 0.05 | 0.05 | 56 | 1010.4 |
| 20260505213004 | 55 | 220 | 0.0 | 0.0 | 0.00 | 0.05 | 0.05 | 58 | 1010.8 |
| 20260505212500 | 55 | 222 | 1.0 | 1.0 | 0.00 | 0.05 | 0.05 | 58 | 1010.7 |
| 20260505211957 | 55 | 222 | 0.0 | 0.0 | 0.00 | 0.05 | 0.05 | 54 | 1010.7 |
| 20260505211455 | 55 | 243 | 1.0 | 2.0 | 0.00 | 0.05 | 0.05 | 53 | 1010.6 |
| 20260505210951 | 55 | 314 | 4.0 | 6.0 | 0.00 | 0.05 | 0.05 | 51 | 1010.6 |
| 20260505210448 | 55 | 248 | 1.0 | 2.0 | 0.00 | 0.05 | 0.05 | 52 | 1010.4 |
| 20260505205944 | 56 | 224 | 0.0 | 1.0 | 0.00 | 0.05 | 0.05 | 55 | 1010.3 |
| 20260505205443 | 56 | 227 | 1.0 | 1.0 | 0.00 | 0.05 | 0.05 | 54 | 1010.6 |
| 20260505204939 | 56 | 358 | 2.0 | 2.0 | 0.00 | 0.05 | 0.05 | 53 | 1010.6 |
| 20260505204438 | 56 | 225 | 1.0 | 1.0 | 0.00 | 0.05 | 0.05 | 53 | 1010.7 |
| 20260505203934 | 56 | 198 | 3.0 | 3.0 | 0.00 | 0.05 | 0.05 | 56 | 1010.9 |
| 20260505203431 | 56 | 217 | 1.0 | 1.0 | 0.00 | 0.05 | 0.05 | 60 | 1010.7 |
| 20260505202927 | 55 | 231 | 0.0 | 1.0 | 0.00 | 0.05 | 0.05 | 59 | 1011.1 |
| 20260505202424 | 56 | 207 | 2.0 | 2.0 | 0.00 | 0.05 | 0.05 | 60 | 1011.2 |
| 20260505201920 | 55 | 231 | 1.0 | 1.0 | 0.00 | 0.05 | 0.05 | 57 | 1011.2 |
| 20260505201417 | 55 | 217 | 0.0 | 0.0 | 0.00 | 0.05 | 0.05 | 58 | 1011.2 |
| 20260505200915 | 55 | 238 | 1.0 | 1.0 | 0.00 | 0.05 | 0.05 | 57 | 1011.4 |
| 20260505200412 | 54 | 223 | 0.0 | 0.0 | 0.00 | 0.05 | 0.05 | 60 | 1011.4 |
| 20260505195908 | 54 | 281 | 1.0 | 2.0 | 0.00 | 0.05 | 0.05 | 57 | 1011.4 |
| 20260505195405 | 54 | 229 | 0.0 | 1.0 | 0.00 | 0.05 | 0.05 | 57 | 1011.5 |
| 20260505194903 | 54 | 226 | 0.0 | 1.0 | 0.00 | 0.05 | 0.05 | 60 | 1011.5 |
| 20260505194400 | 54 | 223 | 0.0 | 0.0 | 0.00 | 0.05 | 0.05 | 61 | 1011.9 |
| 20260505193855 | 53 | 235 | 1.0 | 1.0 | 0.00 | 0.05 | 0.05 | 61 | 1011.9 |
| 20260505193353 | 53 | 248 | 1.0 | 1.0 | 0.00 | 0.05 | 0.05 | 58 | 1012.0 |
| 20260505192850 | 53 | 230 | 2.0 | 2.0 | 0.00 | 0.05 | 0.05 | 59 | 1011.8 |
| 20260505192348 | 53 | 243 | 2.0 | 3.0 | 0.00 | 0.05 | 0.05 | 60 | 1012.1 |
| 20260505191845 | 53 | 235 | 2.0 | 2.0 | 0.00 | 0.05 | 0.05 | 56 | 1012.0 |
| 20260505191344 | 54 | 226 | 1.0 | 2.0 | 0.00 | 0.05 | 0.05 | 58 | 1011.9 |
| 20260505190840 | 54 | 211 | 0.0 | 0.0 | 0.00 | 0.05 | 0.05 | 61 | 1012.0 |
| 20260505190336 | 53 | 225 | 1.0 | 1.0 | 0.00 | 0.05 | 0.05 | 61 | 1012.0 |
| 20260505185832 | 53 | 233 | 1.0 | 2.0 | 0.00 | 0.05 | 0.05 | 63 | 1012.1 |
| 20260505185328 | 54 | 256 | 2.0 | 2.0 | 0.00 | 0.05 | 0.05 | 59 | 1011.9 |
| 20260505184824 | 53 | 228 | 0.0 | 0.0 | 0.00 | 0.05 | 0.05 | 61 | 1012.1 |
| 20260505184322 | 53 | 231 | 0.0 | 0.0 | 0.00 | 0.05 | 0.05 | 59 | 1012.0 |
| 20260505183819 | 53 | 227 | 0.0 | 0.0 | 0.00 | 0.05 | 0.05 | 66 | 1012.0 |
| 20260505183315 | 52 | 238 | 2.0 | 2.0 | 0.00 | 0.05 | 0.05 | 60 | 1011.8 |
| 20260505182812 | 52 | 230 | 2.0 | 2.0 | 0.00 | 0.05 | 0.05 | 60 | 1012.1 |
| 20260505182309 | 53 | 228 | 2.0 | 3.0 | 0.00 | 0.05 | 0.05 | 62 | 1011.9 |
| 20260505181806 | 53 | 222 | 0.0 | 0.0 | 0.00 | 0.05 | 0.05 | 68 | 1012.2 |
| 20260505181303 | 53 | 228 | 2.0 | 2.0 | 0.00 | 0.05 | 0.05 | 65 | 1012.0 |
| 20260505180800 | 53 | 220 | 0.0 | 0.0 | 0.00 | 0.05 | 0.05 | 66 | 1012.1 |
| 20260505180256 | 53 | 209 | 1.0 | 2.0 | 0.00 | 0.05 | 0.05 | 64 | 1012.0 |
| 20260505175752 | 53 | 178 | 0.0 | 1.0 | 0.00 | 0.05 | 0.05 | 64 | 1012.1 |
| 20260505175249 | 52 | 235 | 2.0 | 2.0 | 0.00 | 0.05 | 0.05 | 63 | 1012.4 |
| 20260505174745 | 52 | 228 | 1.0 | 1.0 | 0.00 | 0.05 | 0.05 | 62 | 1012.3 |
| 20260505174243 | 53 | 222 | 0.0 | 1.0 | 0.00 | 0.05 | 0.05 | 61 | 1012.6 |
| 20260505173739 | 53 | 235 | 1.0 | 1.0 | 0.00 | 0.05 | 0.05 | 59 | 1012.5 |
| 20260505173236 | 53 | 226 | 0.0 | 1.0 | 0.00 | 0.05 | 0.05 | 60 | 1012.6 |
| 20260505172733 | 53 | 241 | 1.0 | 1.0 | 0.00 | 0.05 | 0.05 | 61 | 1012.2 |
| 20260505172230 | 53 | 216 | 0.0 | 0.0 | 0.00 | 0.05 | 0.05 | 61 | 1012.5 |
| 20260505171729 | 53 | 225 | 1.0 | 2.0 | 0.00 | 0.05 | 0.05 | 61 | 1012.4 |
| 20260505171227 | 53 | 230 | 1.0 | 1.0 | 0.00 | 0.05 | 0.05 | 63 | 1012.2 |
| 20260505170723 | 53 | 214 | 0.0 | 0.0 | 0.00 | 0.05 | 0.05 | 65 | 1011.9 |
| 20260505170220 | 53 | 224 | 1.0 | 2.0 | 0.00 | 0.05 | 0.05 | 60 | 1011.7 |
| 20260505165716 | 53 | 302 | 3.0 | 3.0 | 0.00 | 0.05 | 0.05 | 59 | 1011.8 |
| 20260505165212 | 53 | 229 | 1.0 | 1.0 | 0.00 | 0.05 | 0.05 | 63 | 1011.7 |
| 20260505164707 | 53 | 294 | 3.0 | 3.0 | 0.00 | 0.05 | 0.05 | 60 | 1011.9 |
| 20260505164205 | 53 | 199 | 0.0 | 1.0 | 0.00 | 0.05 | 0.05 | 62 | 1011.8 |
| 20260505163703 | 53 | 352 | 2.0 | 2.0 | 0.00 | 0.05 | 0.05 | 59 | 1012.0 |
| 20260505163201 | 53 | 203 | 0.0 | 0.0 | 0.00 | 0.05 | 0.05 | 61 | 1011.8 |
| 20260505162658 | 53 | 202 | 1.0 | 1.0 | 0.00 | 0.05 | 0.05 | 60 | 1011.8 |
| 20260505162155 | 53 | 99 | 3.0 | 7.0 | 0.00 | 0.05 | 0.05 | 57 | 1011.8 |
| 20260505161652 | 53 | 176 | 1.0 | 1.0 | 0.00 | 0.05 | 0.05 | 58 | 1011.4 |
| 20260505161149 | 54 | 231 | 1.0 | 2.0 | 0.00 | 0.05 | 0.05 | 62 | 1011.8 |
| 20260505160647 | 54 | 338 | 2.0 | 3.0 | 0.00 | 0.05 | 0.05 | 60 | 1011.5 |
| 20260505160144 | 54 | 176 | 2.0 | 3.0 | 0.00 | 0.05 | 0.05 | 64 | 1011.7 |
| 20260505153124 | 52 | 232 | 1.0 | 2.0 | 0.00 | 0.05 | 0.05 | 69 | 1011.0 |
| 20260505152620 | 52 | 333 | 4.0 | 5.0 | 0.00 | 0.05 | 0.05 | 68 | 1010.9 |
| 20260505152116 | 52 | 308 | 2.0 | 2.0 | 0.00 | 0.05 | 0.05 | 69 | 1010.5 |
| 20260505151612 | 52 | 294 | 2.0 | 2.0 | 0.00 | 0.05 | 0.05 | 70 | 1010.3 |
| 20260505151109 | 52 | 271 | 2.0 | 2.0 | 0.00 | 0.05 | 0.05 | 71 | 1010.6 |
| 20260505150605 | 52 | 306 | 3.0 | 5.0 | 0.00 | 0.05 | 0.05 | 71 | 1010.2 |
| 20260505140531 | 49 | 241 | 1.0 | 1.0 | 0.00 | 0.05 | 0.05 | 77 | 1010.1 |
| 20260505124944 | 46 | 290 | 3.0 | 5.0 | 0.00 | 0.04 | 0.04 | 90 | 1010.8 |
| 20260505124441 | 46 | 263 | 2.0 | 2.0 | 0.00 | 0.04 | 0.04 | 91 | 1010.8 |
| 20260505123937 | 46 | 224 | 0.0 | 0.0 | 0.00 | 0.04 | 0.04 | 91 | 1010.8 |
| 20260505123434 | 46 | 224 | 0.0 | 0.0 | 0.00 | 0.04 | 0.04 | 91 | 1010.8 |
| 20260505122929 | 46 | 220 | 0.0 | 0.0 | 0.00 | 0.04 | 0.04 | 91 | 1010.9 |
| 20260505122427 | 46 | 231 | 0.0 | 0.0 | 0.00 | 0.04 | 0.04 | 90 | 1011.1 |
| 20260505121924 | 46 | 225 | 0.0 | 1.0 | 0.05 | 0.04 | 0.04 | 89 | 1011.0 |
| 20260505121421 | 46 | 220 | 3.0 | 5.0 | 0.05 | 0.04 | 0.04 | 88 | 1011.0 |
| 20260505120916 | 46 | 214 | 0.0 | 1.0 | 0.07 | 0.03 | 0.03 | 88 | 1011.3 |
| 20260505120413 | 46 | 288 | 2.0 | 2.0 | 0.07 | 0.03 | 0.03 | 86 | 1011.3 |
| 20260505115912 | 47 | 216 | 0.0 | 0.0 | 0.05 | 0.02 | 0.02 | 86 | 1011.4 |
| 20260505115409 | 47 | 221 | 0.0 | 1.0 | 0.05 | 0.02 | 0.02 | 85 | 1011.3 |
| 20260505114907 | 48 | 245 | 1.0 | 1.0 | 0.00 | 0.01 | 0.01 | 82 | 1011.3 |
| 20260505114403 | 48 | 234 | 1.0 | 1.0 | 0.07 | 0.01 | 0.01 | 80 | 1011.4 |
| 20260505113859 | 49 | 224 | 0.0 | 0.0 | 0.07 | 0.01 | 0.01 | 79 | 1011.4 |
| 20260505113356 | 49 | 227 | 0.0 | 1.0 | 0.00 | 0.00 | 0.00 | 77 | 1011.3 |
| 20260505112852 | 50 | 219 | 0.0 | 0.0 | 0.00 | 0.00 | 0.00 | 74 | 1011.5 |
| 20260505112350 | 50 | 241 | 2.0 | 2.0 | 0.00 | 0.00 | 0.00 | 72 | 1011.3 |
| 20260505111845 | 50 | 238 | 3.0 | 3.0 | 0.00 | 0.00 | 0.00 | 71 | 1011.1 |
| 20260505111340 | 51 | 245 | 3.0 | 3.0 | 0.00 | 0.00 | 0.00 | 70 | 1010.7 |
| 20260505110837 | 51 | 242 | 2.0 | 3.0 | 0.00 | 0.00 | 0.00 | 67 | 1010.3 |
| 20260505110334 | 51 | 242 | 2.0 | 2.0 | 0.00 | 0.00 | 0.00 | 68 | 1009.6 |
| 20260505101809 | 52 | 222 | 2.0 | 2.0 | 0.00 | 0.00 | 0.00 | 63 | 1009.6 |
| 20260505101305 | 52 | 348 | 2.0 | 2.0 | 0.00 | 0.00 | 0.00 | 62 | 1009.5 |
| 20260505100801 | 52 | 216 | 0.0 | 0.0 | 0.00 | 0.00 | 0.00 | 66 | 1009.6 |
| 20260505100258 | 52 | 294 | 1.0 | 2.0 | 0.00 | 0.00 | 0.00 | 64 | 1009.6 |
| 20260505095753 | 52 | 267 | 1.0 | 2.0 | 0.00 | 0.00 | 0.00 | 61 | 1009.6 |
| 20260505095251 | 52 | 216 | 1.0 | 1.0 | 0.00 | 0.00 | 0.00 | 62 | 1009.5 |
| 20260505094746 | 53 | 222 | 1.0 | 1.0 | 0.00 | 0.00 | 0.00 | 62 | 1009.3 |
| 20260505094244 | 53 | 224 | 0.0 | 0.0 | 0.00 | 0.00 | 0.00 | 64 | 1009.6 |
| 20260505093739 | 53 | 222 | 1.0 | 1.0 | 0.00 | 0.00 | 0.00 | 65 | 1009.3 |
| 20260505093237 | 53 | 268 | 0.0 | 1.0 | 0.00 | 0.00 | 0.00 | 63 | 1009.0 |
| 20260505092734 | 53 | 263 | 2.0 | 2.0 | 0.00 | 0.00 | 0.00 | 62 | 1008.6 |
| 20260505092233 | 53 | 295 | 2.0 | 2.0 | 0.00 | 0.00 | 0.00 | 60 | 1008.6 |
| 20260505091729 | 53 | 218 | 0.0 | 0.0 | 0.00 | 0.00 | 0.00 | 62 | 1008.4 |
| 20260505091228 | 53 | 74 | 0.0 | 1.0 | 0.00 | 0.00 | 0.00 | 65 | 1008.4 |
| 20260505090725 | 53 | 298 | 4.0 | 7.0 | 0.00 | 0.00 | 0.00 | 60 | 1008.6 |
| 20260505090223 | 53 | 205 | 3.0 | 5.0 | 0.00 | 0.00 | 0.00 | 61 | 1008.4 |
| 20260505085720 | 53 | 317 | 4.0 | 5.0 | 0.00 | 0.00 | 0.00 | 60 | 1008.5 |
| 20260505085218 | 54 | 230 | 2.0 | 2.0 | 0.00 | 0.00 | 0.00 | 63 | 1008.3 |
| 20260505084715 | 54 | 279 | 1.0 | 2.0 | 0.00 | 0.00 | 0.00 | 60 | 1007.8 |
| 20260505084214 | 54 | 248 | 2.0 | 2.0 | 0.00 | 0.00 | 0.00 | 61 | 1007.9 |
| 20260505083710 | 54 | 252 | 3.0 | 3.0 | 0.00 | 0.00 | 0.00 | 61 | 1008.0 |
| 20260505083208 | 54 | 243 | 1.0 | 1.0 | 0.00 | 0.00 | 0.00 | 62 | 1007.9 |
| 20260505082703 | 54 | 228 | 3.0 | 3.0 | 0.00 | 0.00 | 0.00 | 62 | 1008.2 |
| 20260505082201 | 55 | 310 | 3.0 | 5.0 | 0.00 | 0.00 | 0.00 | 62 | 1007.9 |
| 20260505081656 | 55 | 280 | 2.0 | 2.0 | 0.00 | 0.00 | 0.00 | 62 | 1008.0 |
| 20260505081154 | 55 | 213 | 1.0 | 2.0 | 0.00 | 0.00 | 0.00 | 60 | 1007.8 |
| 20260505080651 | 55 | 236 | 1.0 | 1.0 | 0.00 | 0.00 | 0.00 | 63 | 1007.4 |
| 20260505080147 | 55 | 303 | 3.0 | 3.0 | 0.00 | 0.00 | 0.00 | 59 | 1007.5 |
| 20260505075643 | 55 | 347 | 1.0 | 2.0 | 0.00 | 0.00 | 0.00 | 63 | 1007.6 |
| 20260505075140 | 55 | 216 | 0.0 | 1.0 | 0.00 | 0.00 | 0.00 | 62 | 1007.4 |
| 20260505074637 | 55 | 341 | 1.0 | 2.0 | 0.00 | 0.00 | 0.00 | 62 | 1007.3 |
| 20260505074134 | 54 | 251 | 1.0 | 1.0 | 0.00 | 0.00 | 0.00 | 61 | 1006.9 |
| 20260505073632 | 54 | 222 | 0.0 | 0.0 | 0.00 | 0.00 | 0.00 | 65 | 1006.9 |
| 20260505073130 | 54 | 222 | 0.0 | 0.0 | 0.00 | 0.00 | 0.00 | 64 | 1006.7 |
| 20260505072624 | 53 | 228 | 0.0 | 0.0 | 0.00 | 0.00 | 0.00 | 67 | 1006.6 |
| 20260505072121 | 54 | 226 | 0.0 | 0.0 | 0.00 | 0.00 | 0.00 | 68 | 1006.4 |
| 20260505071617 | 54 | 221 | 1.0 | 2.0 | 0.00 | 0.00 | 0.00 | 64 | 1006.4 |
| 20260505071115 | 53 | 227 | 1.0 | 1.0 | 0.00 | 0.00 | 0.00 | 67 | 1006.4 |
| 20260505070612 | 54 | 218 | 0.0 | 0.0 | 0.00 | 0.00 | 0.00 | 70 | 1006.1 |